Regional Weather Roundup
Issued by NWS

Home | Current Version | Previous Version | Text Only | Print | Product List | Glossary On
Versions: 1 2 3 4 5 6 7 8 9 10 11 12 13 14 15 16 17 18 19 20 21 22 23 24 25 26 27 28 29 30 31 32 33 34 35 36 37 38 39 40 41 42 43 44 45 46 47 48 49 50
000
ASUS42 KKEY 280410
RWRKEY

FLORIDA REGIONAL WEATHER ROUNDUP FOR THE FLORIDA KEYS
NATIONAL WEATHER SERVICE KEY WEST FLORIDA
1200 AM EDT MON JUL 28 2014

...SOUTH FLORIDA AND THE KEYS...

CITY           SKY/WX    TMP DP  RH WIND       PRES   REMARKS
FORT MYERS     CLEAR     83  76  79 CALM      30.08S HX  91
SW REGIONAL AP CLEAR     81  75  82 SW3       30.09R
NAPLES         CLEAR     81  78  91 CALM      30.09R
MIAMI          MOCLDY    84  73  69 S7        30.10S HX  90
WEST KENDALL   PTCLDY    84  74  71 S5        30.10R HX  91
HOMESTEAD      PTCLDY    84  77  80 SW5       30.10S HX  93
MARATHON       CLEAR     84  74  71 CALM      30.10S HX  91
BOCA CHICA NAS CLEAR     83  74  74 E5        30.10S
KEY WEST INTL  CLEAR     85  74  69 CALM      30.10S HX  92

...INTERNATIONAL WEATHER...

CITY           SKY/WX    TMP DP  RH WIND       PRES   REMARKS
NASSAU BAHAMAS NOT AVBL
CANCUN MEXICO  PTCLDY    82  77  83 CALM      30.08R HX  91
COZUMEL MEXICO PTCLDY    77  77 100 E5        30.08R

ADJACENT COASTAL WATERS...

STATION/POSITION TIME  SKY/WX   TEMP    WIND        PRES    WAVE
                                AIR SEA DIR/SP/G            HT/PER
                 (UTC)          (F)     (DEG/KT/KT) (MB)    (FT/S)
PULASKI SHOAL LI 0400            85      60/  6/  6 1019.2R
SAND KEY         0400            85     100/  6/  9 1019.2R
SOMBRERO KEY     0400            85      90/  3/  4 1020.2F
LONG KEY         0300            85 90  130/  3/  4 1020.3R
MOLASSES REEF    0400            84 87  170/  4/  5 1019.4F
FOWEY ROCKS      0400            85 86  180/ 10/ 11 1019.7S
Buoy 42080       NOT AVBL

$$



USA.gov is the U.S. government's official web portal to all federal, state and local government web resources and services.